TimeMDT,TemperatureF,Dew PointF,Humidity,Sea Level PressureIn,VisibilityMPH,Wind Direction,Wind SpeedMPH,Gust SpeedMPH,PrecipitationIn,Events,Conditions,WindDirDegrees,DateUTC
5:00 AM,10.4,8.6,92,30.55,15.0,WNW,3.5,-,N/A,,Clear,290,2013-04-22 11:00:00
6:00 AM,9,6,81,30.56,19,NW,5.8,,,,Clear,310,2013-04-22 12:00:00
6:00 AM,8.6,6.8,92,30.56,20.0,NW,5.8,-,N/A,,Clear,310,2013-04-22 12:00:00
7:00 AM,12.2,8.6,85,30.56,30.0,NNW,5.8,-,N/A,,Clear,330,2013-04-22 13:00:00
9:00 AM,24.8,17.6,74,30.54,30.0,NNW,9.2,-,N/A,,Clear,330,2013-04-22 15:00:00
10:00 AM,32.0,15.8,51,30.52,30.0,NW,6.9,-,N/A,,Clear,320,2013-04-22 16:00:00
11:00 AM,35.6,6.8,30,30.50,30.0,NW,10.4,-,N/A,,Clear,310,2013-04-22 17:00:00
12:00 PM,37.4,8.6,30,30.49,30.0,West,6.9,-,N/A,,Partly Cloudy,280,2013-04-22 18:00:00
1:00 PM,41.0,8.6,26,30.47,30.0,NW,9.2,-,N/A,,Partly Cloudy,310,2013-04-22 19:00:00
2:00 PM,41.0,6.8,24,30.45,30.0,West,3.5,-,N/A,,Clear,280,2013-04-22 20:00:00
3:00 PM,44.6,8.6,23,30.44,30.0,NW,8.1,-,N/A,,Clear,320,2013-04-22 21:00:00
4:00 PM,44.6,8.6,23,30.42,30.0,West,6.9,-,N/A,,Clear,270,2013-04-22 22:00:00
4:08 PM,44.6,6.8,21,30.42,30.0,NW,8.1,-,N/A,,Clear,310,2013-04-22 22:08:00
5:00 PM,46.4,10.4,23,30.39,30.0,NW,9.2,-,N/A,,Clear,310,2013-04-22 23:00:00
6:00 PM,46,7,10,30.37,28,WNW,5.8,,,,,290,2013-04-23 00:00:00
6:00 PM,46.4,6.8,20,30.36,30.0,West,5.8,-,N/A,,Clear,280,2013-04-23 00:00:00
7:00 PM,46.4,6.8,20,30.34,30.0,WSW,9.2,-,N/A,,Clear,240,2013-04-23 01:00:00
8:00 PM,41.0,10.4,29,30.33,30.0,WSW,9.2,-,N/A,,Clear,250,2013-04-23 02:00:00
8:36 PM,35.6,10.4,35,30.34,30.0,WSW,11.5,-,N/A,,Clear,250,2013-04-23 02:36:00
9:00 PM,30.2,12.2,47,30.33,20.0,West,12.7,-,N/A,,Clear,260,2013-04-23 03:00:00
10:00 PM,30.2,12.2,47,30.18,15.0,West,11.5,-,N/A,,Clear,280,2013-04-23 04:00:00